Hourly Weather Bolshie Novoselki

Today, 20 June, Sunday

Time Temperature Precipitation Wind Pressure Humidity
00:00 +19°C° 0 mm 2 mps 745 mmHg 90%
01:00 +19°C° 0 mm 2 mps 745 mmHg 91%
02:00 +19°C° 0 mm 2 mps 746 mmHg 92%
03:00 +19°C° 0.1 mm 2 mps 745 mmHg 92%
04:00 +19°C° 0.1 mm 2 mps 745 mmHg 93%
05:00 +19°C° 0.1 mm 2 mps 745 mmHg 94%
06:00 +21°C° 0 mm 2 mps 745 mmHg 89%
07:00 +22°C° 0 mm 3 mps 745 mmHg 84%
08:00 +25°C° 0 mm 3 mps 745 mmHg 79%
09:00 +26°C° 0 mm 4 mps 745 mmHg 73%
10:00 +27°C° 0 mm 4 mps 745 mmHg 68%
11:00 +29°C° 0 mm 5 mps 745 mmHg 62%
12:00 +29°C° 0 mm 5 mps 745 mmHg 60%
13:00 +30°C° 0 mm 4 mps 744 mmHg 57%
14:00 +30°C° 0 mm 4 mps 744 mmHg 55%
15:00 +30°C° 0 mm 4 mps 744 mmHg 58%
16:00 +29°C° 0 mm 4 mps 744 mmHg 61%
17:00 +29°C° 0 mm 4 mps 744 mmHg 64%
18:00 +27°C° 0 mm 4 mps 743 mmHg 69%
19:00 +26°C° 0 mm 3 mps 743 mmHg 75%
20:00 +24°C° 0 mm 3 mps 743 mmHg 80%
21:00 +22°C° 0 mm 3 mps 743 mmHg 84%
22:00 +21°C° 0 mm 3 mps 743 mmHg 87%
23:00 +20°C° 0 mm 3 mps 743 mmHg 91%

Tomorrow, 21 June, Monday

Time Temperature Precipitation Wind Pressure Humidity
00:00 +19°C° 0 mm 3 mps 743 mmHg 92%
01:00 +19°C° 0 mm 2 mps 743 mmHg 93%
02:00 +18°C° 0 mm 2 mps 743 mmHg 94%
03:00 +18°C° 0 mm 2 mps 743 mmHg 94%
04:00 +19°C° 0 mm 2 mps 743 mmHg 93%
05:00 +19°C° 0 mm 2 mps 743 mmHg 93%
06:00 +20°C° 0 mm 3 mps 743 mmHg 87%
07:00 +22°C° 0 mm 4 mps 743 mmHg 81%
08:00 +23°C° 0 mm 4 mps 743 mmHg 75%
09:00 +25°C° 0 mm 5 mps 743 mmHg 69%
10:00 +26°C° 0 mm 5 mps 742 mmHg 64%
11:00 +27°C° 0 mm 5 mps 742 mmHg 58%
12:00 +28°C° 0 mm 5 mps 742 mmHg 55%
13:00 +29°C° 0 mm 5 mps 742 mmHg 53%
14:00 +29°C° 0 mm 5 mps 742 mmHg 50%
15:00 +29°C° 0 mm 5 mps 742 mmHg 54%
16:00 +29°C° 0 mm 5 mps 741 mmHg 57%
17:00 +29°C° 0 mm 5 mps 741 mmHg 60%
18:00 +28°C° 0 mm 4 mps 741 mmHg 67%
19:00 +26°C° 0 mm 4 mps 741 mmHg 74%
20:00 +25°C° 0 mm 3 mps 741 mmHg 80%
21:00 +24°C° 0.1 mm 3 mps 741 mmHg 83%
22:00 +22°C° 0.1 mm 3 mps 741 mmHg 87%
23:00 +21°C° 0.1 mm 4 mps 741 mmHg 90%

Day after tomorrow, 22 June, Tuesday

Time Temperature Precipitation Wind Pressure Humidity
00:00 +21°C° 0 mm 3 mps 741 mmHg 91%
01:00 +20°C° 0 mm 3 mps 741 mmHg 93%
02:00 +20°C° 0 mm 3 mps 741 mmHg 94%
03:00 +20°C° 0 mm 3 mps 741 mmHg 94%
04:00 +20°C° 0 mm 3 mps 741 mmHg 93%
05:00 +20°C° 0 mm 3 mps 741 mmHg 92%
06:00 +21°C° 0 mm 3 mps 741 mmHg 88%
07:00 +24°C° 0 mm 3 mps 741 mmHg 84%
08:00 +25°C° 0 mm 4 mps 741 mmHg 80%
09:00 +26°C° 0.2 mm 4 mps 741 mmHg 75%
10:00 +27°C° 0.2 mm 4 mps 741 mmHg 71%
11:00 +28°C° 0.2 mm 4 mps 742 mmHg 67%
12:00 +29°C° 0.1 mm 4 mps 741 mmHg 63%
13:00 +30°C° 0.1 mm 4 mps 741 mmHg 59%
14:00 +31°C° 0.1 mm 3 mps 741 mmHg 54%
15:00 +31°C° 0 mm 3 mps 741 mmHg 57%
16:00 +31°C° 0 mm 3 mps 741 mmHg 59%
17:00 +31°C° 0 mm 3 mps 741 mmHg 61%
18:00 +29°C° 0.1 mm 2 mps 741 mmHg 66%
19:00 +28°C° 0.1 mm 2 mps 741 mmHg 72%
20:00 +26°C° 0.1 mm 1 mps 741 mmHg 77%
21:00 +25°C° 0 mm 2 mps 741 mmHg 79%
22:00 +24°C° 0 mm 2 mps 741 mmHg 82%
23:00 +24°C° 0 mm 2 mps 742 mmHg 85%

23 June, Wednesday

Time Temperature Precipitation Wind Pressure Humidity
00:00 +22°C° 0 mm 3 mps 742 mmHg 86%
01:00 +21°C° 0 mm 3 mps 742 mmHg 87%
02:00 +21°C° 0 mm 3 mps 742 mmHg 87%
03:00 +20°C° 0 mm 3 mps 742 mmHg 88%
04:00 +20°C° 0 mm 3 mps 742 mmHg 89%
05:00 +20°C° 0 mm 3 mps 742 mmHg 90%
06:00 +21°C° 0 mm 3 mps 742 mmHg 84%
07:00 +24°C° 0 mm 3 mps 742 mmHg 78%
08:00 +25°C° 0 mm 4 mps 743 mmHg 72%
09:00 +27°C° 0 mm 4 mps 743 mmHg 66%
10:00 +28°C° 0 mm 4 mps 743 mmHg 61%
11:00 +29°C° 0 mm 3 mps 743 mmHg 56%
12:00 +30°C° 0 mm 3 mps 743 mmHg 55%
13:00 +31°C° 0 mm 3 mps 743 mmHg 54%
14:00 +31°C° 0 mm 3 mps 743 mmHg 53%
15:00 +31°C° 0 mm 3 mps 743 mmHg 55%
16:00 +31°C° 0 mm 3 mps 743 mmHg 57%
17:00 +31°C° 0 mm 2 mps 743 mmHg 60%
18:00 +30°C° 0 mm 2 mps 743 mmHg 65%
19:00 +28°C° 0 mm 1 mps 743 mmHg 70%
20:00 +27°C° 0 mm 1 mps 743 mmHg 75%
21:00 +26°C° 0.1 mm 1 mps 743 mmHg 78%
22:00 +25°C° 0.1 mm 2 mps 743 mmHg 81%
23:00 +24°C° 0.1 mm 2 mps 743 mmHg 85%

24 June, Thursday

Time Temperature Precipitation Wind Pressure Humidity
00:00 +24°C° 0.1 mm 2 mps 743 mmHg 87%
01:00 +23°C° 0.1 mm 2 mps 743 mmHg 88%
02:00 +23°C° 0.1 mm 2 mps 743 mmHg 90%
03:00 +23°C° 0 mm 2 mps 743 mmHg 91%
04:00 +21°C° 0 mm 2 mps 743 mmHg 91%
05:00 +21°C° 0 mm 2 mps 743 mmHg 91%
06:00 +24°C° 0 mm 3 mps 743 mmHg 86%
07:00 +25°C° 0 mm 3 mps 743 mmHg 80%
08:00 +27°C° 0 mm 3 mps 743 mmHg 75%
09:00 +28°C° 0 mm 3 mps 743 mmHg 70%
10:00 +29°C° 0 mm 4 mps 743 mmHg 65%
11:00 +32°C° 0 mm 4 mps 743 mmHg 59%
12:00 +32°C° 0 mm 4 mps 743 mmHg 57%
13:00 +33°C° 0 mm 4 mps 743 mmHg 54%
14:00 +33°C° 0 mm 3 mps 743 mmHg 52%
15:00 +33°C° 0 mm 3 mps 743 mmHg 55%
16:00 +33°C° 0 mm 3 mps 743 mmHg 57%
17:00 +33°C° 0 mm 3 mps 742 mmHg 60%
18:00 +30°C° 0.2 mm 2 mps 742 mmHg 66%
19:00 +28°C° 0.2 mm 2 mps 742 mmHg 72%
20:00 +27°C° 0.2 mm 2 mps 742 mmHg 78%
21:00 +25°C° 1.7 mm 2 mps 742 mmHg 82%
22:00 +23°C° 1.7 mm 2 mps 742 mmHg 86%
23:00 +20°C° 1.7 mm 3 mps 742 mmHg 89%

25 June, Friday

Time Temperature Precipitation Wind Pressure Humidity
00:00 +20°C° 0.2 mm 2 mps 742 mmHg 88%
01:00 +20°C° 0.2 mm 2 mps 741 mmHg 86%
02:00 +21°C° 0.2 mm 1 mps 741 mmHg 85%
03:00 +20°C° 0.9 mm 2 mps 741 mmHg 88%
04:00 +19°C° 0.9 mm 2 mps 741 mmHg 92%
05:00 +19°C° 0.9 mm 2 mps 741 mmHg 95%
06:00 +20°C° 0.2 mm 2 mps 741 mmHg 93%
07:00 +22°C° 0.2 mm 1 mps 741 mmHg 91%
08:00 +23°C° 0.2 mm 1 mps 741 mmHg 89%
09:00 +23°C° 0.2 mm 1 mps 741 mmHg 89%
10:00 +23°C° 0.2 mm 1 mps 741 mmHg 90%
11:00 +23°C° 0.2 mm 1 mps 742 mmHg 90%
12:00 +23°C° 0.1 mm 1 mps 742 mmHg 87%
13:00 +24°C° 0.1 mm 1 mps 741 mmHg 83%
14:00 +25°C° 0.1 mm 1 mps 741 mmHg 80%
15:00 +25°C° 0.1 mm 1 mps 741 mmHg 76%
16:00 +26°C° 0.1 mm 1 mps 741 mmHg 72%
17:00 +27°C° 0.1 mm 1 mps 741 mmHg 68%
18:00 +26°C° 0.1 mm 1 mps 741 mmHg 74%
19:00 +25°C° 0.1 mm 1 mps 741 mmHg 80%
20:00 +24°C° 0.1 mm 1 mps 740 mmHg 85%
21:00 +23°C° 0 mm 1 mps 740 mmHg 88%
22:00 +21°C° 0 mm 2 mps 740 mmHg 91%
23:00 +20°C° 0 mm 2 mps 740 mmHg 94%
Show more